Погода в Посёлке имени Карла Либкнехта

Россия / Курская область     51°37′08″N   35°28′37″E
темп.,
°C
ветер,
м/с
пор.,
м/с
влажн.,
%
обл.,
%
осадки,
мм/ч
давл.,
гПа
погр.,
м
4 июля, пн
пн400:00+18сз33875 0.2 101739
03:00+17сз358799 0.2 101783
06:00+18ссз358297 0.0 101799
09:00+23сз346757 0.0 1017369
12:00+27сз345310 0.0 10161016
15:00+28сз334362 0.0 10152566
18:00+26сз246432 0.0 1015221
21:00+21ссз367678 0.0 1016156
5 июля, вт
вт500:00+19св228444 0.0 101628
03:00+17ссв118540 0.0 101611
06:00+18с118477 0.0 101727
09:00+24зсз1266100 0.0 1017405
12:00+27зсз2255100 0.0 10171195
15:00+28ссз114688 0.0 10162264
18:00+26в115685 0.0 1015378
21:00+24юв226191 0.0 101621
6 июля, ср
ср600:00+19ююв33760 0.0 101629
03:00+18ююз33720 0.0 101636
06:00+19ююз22745 0.0 101619
09:00+25ю235910 0.0 1016396
12:00+28ю444936 0.0 10161422
15:00+29ю444486 0.0 10152203
18:00+26ююв475823 0.0 1013232
21:00+22ююв410736 0.0 1014173
7 июля, чт
чт700:00+21ююв5126326 0.0 1014208
03:00+20ю41260100 0.0 1014272
06:00+19ююв49695 0.0 1014165
09:00+23юз465488 0.1 1014411
12:00+22ю366380 0.0 1015296
15:00+23ююв016649 0.3 1015113
18:00+28вюв36565 0.2 1013703
21:00+19ссз3680100 0.3 1015108
8 июля, пт
пт800:00+18ююв2284100 0.0 101611
03:00+17в2284100 0.0 101520
06:00+17юв227277 0.0 101528
09:00+23ююв345265 0.0 1015334
12:00+27ю234010 0.0 10151076
15:00+29юв333469 0.0 10142344
18:00+28в124515 0.0 1014837
21:00+20ссв3476100 0.0 101549